EW6999 Weather Reports


time (UTC)temp
C
wind
direction
speed
KPH
gust
KPH
rain 1hr
cm
rain 24hr
cm
rain mn
cm
humidity
%
barometer
mb
20260505121837 21 156 0.0 1.6 0.00 0.00 0.00 60 1009.3
20260505120334 20 207 0.0 4.8 0.00 0.00 0.00 64 1009.2
20260505114825 18 222 0.0 0.0 0.00 0.00 0.00 68 1009.4
20260505113341 15 222 0.0 0.0 0.00 0.00 0.00 64 1009.4
20260505111854 15 222 0.0 0.0 0.00 0.00 0.00 61 1009.4
20260505110349 15 222 0.0 0.0 0.00 0.00 0.00 61 1009.6
20260505101829 13 302 0.0 1.6 0.00 0.00 0.00 54 1009.2
20260505100340 13 233 0.0 0.0 0.00 0.00 0.00 56 1008.5
20260505094856 13 167 0.0 0.0 0.00 0.00 0.00 60 1008.4
20260505093327 13 175 0.0 1.6 0.00 0.00 0.00 63 1008.4
20260505091824 14 201 0.0 0.0 0.00 0.00 0.00 63 1008.3
20260505090337 13 203 0.0 3.2 0.00 0.00 0.00 62 1008.2
20260505084827 13 194 0.0 4.8 0.00 0.00 0.00 65 1008.2
20260505083404 13 204 0.0 0.0 0.00 0.00 0.00 67 1008.3
20260505081837 13 205 0.0 4.8 0.00 0.00 0.00 69 1008.4
20260505080353 13 150 0.0 1.6 0.00 0.00 0.00 69 1008.3
20260505074825 13 176 0.0 3.2 0.00 0.00 0.00 69 1008.3
20260505073337 13 200 0.0 1.6 0.00 0.00 0.00 69 1008.2
20260505071833 13 211 0.0 0.0 0.00 0.00 0.00 70 1008.1
20260505070326 13 213 0.0 1.6 0.00 0.00 0.00 70 1008.1
20260505064841 14 233 0.0 3.2 0.00 0.00 0.00 71 1008.2
20260505063353 14 210 1.6 4.8 0.00 0.00 0.00 70 1008.2
20260505061828 14 150 1.6 6.4 0.00 0.00 0.00 70 1008.3
20260505060340 14 199 1.6 6.4 0.00 0.00 0.00 70 1008.3
20260505054831 15 207 1.6 4.8 0.00 0.00 0.00 69 1008.3
20260505053327 15 235 1.6 6.4 0.00 0.00 0.00 68 1008.4
20260505051840 15 221 0.0 9.7 0.00 0.00 0.00 67 1008.4
20260505050336 15 176 1.6 8.0 0.00 0.00 0.00 67 1008.6
20260505040330 15 194 1.6 9.7 0.00 0.00 0.00 66 1008.7
20260505034826 15 155 1.6 6.4 0.00 0.00 0.00 65 1008.7
20260505033339 15 217 1.6 8.0 0.00 0.00 0.00 65 1008.8
20260505031836 15 250 1.6 6.4 0.00 0.00 0.00 65 1008.9
20260505030348 15 217 0.0 6.4 0.00 0.00 0.00 64 1009.0
20260505024825 15 160 3.2 6.4 0.00 0.00 0.00 63 1009.0
20260505023337 15 167 0.0 4.8 0.00 0.00 0.00 62 1009.1
20260505021849 15 151 1.6 8.0 0.00 0.00 0.00 60 1009.4
20260505020325 16 196 0.0 4.8 0.00 0.00 0.00 58 1009.3
20260505014836 16 193 1.6 4.8 0.00 0.00 0.00 57 1009.2
20260505013331 16 190 0.0 9.7 0.00 0.00 0.00 56 1009.1
20260505011844 16 110 1.6 6.4 0.00 0.00 0.00 55 1008.9
20260505010340 17 217 0.0 6.4 0.00 0.00 0.00 53 1008.7
20260505004832 17 188 0.0 8.0 0.00 0.00 0.00 51 1008.6
20260505001830 18 179 3.2 6.4 0.00 0.00 0.00 47 1008.2
20260505000343 18 196 0.0 0.0 0.00 0.00 0.00 43 1007.9
20260504234841 19 196 0.0 1.6 0.00 0.00 0.00 40 1007.7
20260504233333 20 144 0.0 4.8 0.00 0.00 0.00 38 1007.6
20260504231829 20 223 0.0 4.8 0.00 0.00 0.00 37 1007.4
20260504230401 21 143 0.0 9.7 0.00 0.00 0.00 35 1007.4
20260504224831 22 113 0.0 4.8 0.00 0.00 0.00 33 1007.3
20260504223328 22 147 1.6 6.4 0.00 0.00 0.00 32 1007.3
20260504221900 22 239 0.0 9.7 0.00 0.00 0.00 33 1007.4
20260504220336 22 329 1.6 6.4 0.00 0.00 0.00 31 1007.4
20260504214827 22 140 1.6 9.7 0.00 0.00 0.00 32 1007.5
20260504213340 22 355 3.2 6.4 0.00 0.00 0.00 32 1007.5
20260504211857 23 97 0.0 4.8 0.00 0.00 0.00 34 1007.6
20260504210327 22 184 0.0 6.4 0.00 0.00 0.00 32 1007.5
20260504204902 22 359 4.8 12.9 0.00 0.00 0.00 32 1007.6
20260504203331 22 226 3.2 17.7 0.00 0.00 0.00 31 1007.6
20260504201824 22 315 1.6 11.3 0.00 0.00 0.00 31 1007.6
20260504200342 22 146 3.2 12.9 0.00 0.00 0.00 31 1007.6
20260504194830 22 78 3.2 8.0 0.00 0.00 0.00 33 1007.8
20260504193347 22 50 0.0 11.3 0.00 0.00 0.00 33 1007.9
20260504191838 22 200 3.2 9.7 0.00 0.00 0.00 33 1008.2
20260504190329 22 257 3.2 12.9 0.00 0.00 0.00 34 1008.5
20260504184825 22 238 1.6 8.0 0.00 0.00 0.00 35 1008.6
20260504183337 22 99 1.6 12.9 0.00 0.00 0.00 35 1008.8
20260504181831 22 221 1.6 12.9 0.00 0.00 0.00 34 1009.0
20260504180323 22 185 3.2 9.7 0.00 0.00 0.00 33 1009.3
20260504174900 22 242 3.2 11.3 0.00 0.00 0.00 33 1009.4
20260504173331 22 242 0.0 11.3 0.00 0.00 0.00 34 1009.6
20260504171842 22 206 3.2 14.5 0.00 0.00 0.00 35 1009.8
20260504170337 22 281 1.6 8.0 0.00 0.00 0.00 34 1010.0
20260504160333 21 112 3.2 12.9 0.00 0.00 0.00 36 1010.7
20260504150326 21 257 1.6 6.4 0.00 0.00 0.00 39 1011.3
20260504140336 20 357 1.6 8.0 0.00 0.00 0.00 41 1011.6
20260504130332 18 198 1.6 6.4 0.00 0.00 0.00 46 1012.2